Back to catalog

STARLINK-30297

AliveCommunicationsVLEO
NORAD 57682·PAYLOAD·🇺🇸 United States

Launched Aug 22, 2023 from Vandenberg Space Force Base

Loading…

Next Passes (next 24 hours)

TLE

FreshSource: CelesTrak SupGP

Epoch: Sep 14, 2026, 21:11 UTC

1 57682C 23124V   26257.88312500  .00025047  00000+0  74039-3 0  2579
2 57682  53.1603  47.6186 0001193  81.1113 172.0943 15.34363066    13

Track STARLINK-30297 in real time with AllMySat

Download on the App Store